SCP
0 0 0 0 0 0 0 0 0 0 0 0 0 0 0 0 0 0 0 0 0 0 0 0 0 0 0 0 0 0 0 0 0 0 0 0 0 0 0 0 0 0 0
0 0 0 0 0 0 0 0 0 0 0 0 0 0 0 0 0 0 0 0 0 0 0 0 0 0 0 0 0 0 0 0 0 0 0 0 0 0 0 -0 -0 0 0
0 0 0 0 0 0 0 0 0 0 0 0 0 0 0 0 0 0 0 0 0 0 0 0 0 0 0 0 0 0 0 0 0 0 0 0 0 0 0 0 -0 -0 -0
0 0 0 0 0 0 0 0 0 0 0 0 0 0 0 0 0 0 0 0 0 0 0 0 0 0 0 0 0 0 0 0 0 0 0 0 0 0 0 0 0 0 0
0 0 0 0 0 0 0 0 0 0 0 0 0 0 0 0 0 0 0 0 0 0 0 0 0 0 0 0 0 0 0 0 0 0 0 0 0 0 0 0 0 0 0
0 0 0 0 0 0 0 0 0 0 0 0 0 0 0 0 0 0 0 0 0 0 0 0 0 0 0 0 0 0 0 0 0 0 0 0 0 0 0 0 0 0 0
0 0 0 0 0 0 0 0 0 0 0 0 0 0 0 0 0 0 0 0 0 0 0 0 0 0 0 0 0 0 0 0 0 0 0 0 0 0 0 0 0 0 0
0 0 0 0 0 0 0 0 0 0 0 0 0 0 0 0 0 0 0 0 0 0 0 0 0 0 0 0 0 0 0 0 0 0 0 0 0 0 0 0 0 0 0
0 0 0 0 0 0 0 0 0 0 0 0 0 0 0 0 0 0 0 0 0 0 0 0 0 0 0 0 0 0 0 0 0 0 0 0 0 0 0 0 0 0 0
0 0 0 0 0 0 0 0 0 0 0 0 0 0 0 0 0 0 0 0 0 0 0 0 0 0 0 0 0 0 0 0 0 0 0 0 0 0 0 0 0 0 0
0 0 0 0 0 0 0 0 0 0 0 0 0 0 0 0 0 0 0 0 0 0 0 0 0 0 0 0 0 0 0 0 0 0 0 0 0 0 0 0 0 0 0
0 0 0 0 0 0 0 0 0 0 0 0 0 0 0 0 0 0 0 0 0 0 0 0 0 0 0 0 0 0 0 0 0 0 0 0 0 0 0 0 0 0 0
0 0 0 0 0 0 0 0 0 0 0 0 0 0 0 0 0 0 0 0 0 0 0 0 0 0 0 0 0 0 0 0 0 0 0 0 0 0 0 0 0 0 0
0 0 0 0 0 0 0 0 0 0 0 0 0 0 0 0 0 0 0 0 0 0 0 0 0 0 0 0 0 0 0 0 0 0 0 0 0 0 0 0 0 0 0
0 0 0 0 0 0 0 0 0 0 0 0 0 0 0 0 0 0 0 0 0 0 0 0 0 0 0 0 0 0 0 0 0 0 0 0 0 0 0 0 0 0 0
0 0 0 0 0 0 0 0 0 0 0 0 0 0 0 0 0 0 0 0 0 0 0 0 0 0 0 0 0 0 0 0 0 0 0 0 0 0 0 0 0 0 0
0 0 0 0 0 0 0 0 0 0 0 0 0 0 0 0 0 0 0 0 0 0 0 0 0 0 0 0 0 0 0 0 0 0 0 0 0 0 0 0 0 0 0
0 0 0 0 0 0 0 0 0 0 0 0 0 0 0 0 0 0 0 0 0 0 0 0 0 0 0 0 0 0 0 0 0 0 0 0 0 0 0 0 0 0 0
0 0 0 0 0 0 0 0 0 0 0 0 0 0 0 0 0 0 0 0 0 0 0 0 0 0 0 0 0 0 0 0 0 0 0 0 0 0 0 0 0 0 0
0 0 0 0 0 0 0 0 0 0 0 0 0 0 0 0 0 0 0 0 0 0 0 0 0 0 0 0 0 0 0 0 0 0 0 0 0 0 0 0 0 0 0
0 0 0 0 0 0 0 0 0 0 0 0 0 0 0 0 0 0 0 0 0 0 0 0 0 0 0 0 0 0 0 0 0 0 0 0 0 0 0 0 0 0 0
0 0 0 0 0 0 0 0 0 0 0 0 0 0 0 0 0 0 0 0 0 0 0 0 0 0 0 0 0 0 0 0 0 0 0 0 0 0 0 0 0 0 0
0 0 0 0 0 0 0 0 0 0 0 0 0 0 0 0 0 0 0 0 0 0 0 0 0 0 0 0 0 0 0 0 0 0 0 0 0 0 0 0 0 0 0
0 0 0 0 0 0 0 0 0 0 0 0 0 0 0 0 0 0 0 0 0 0 0 0 0 0 0 0 0 0 0 0 0 0 0 0 0 0 0 0 0 0 0
0 0 0 0 0 0 0 0 0 0 0 0 0 0 0 0 0 0 0 0 0 0 0 0 0 0 0 0 0 0 0 0 0 0 0 0 0 0 0 0 0 0 0
0 0 0 0 0 0 0 0 0 0 0 0 0 0 0 0 0 0 0 0 0 0 0 0 0 0 0 0 0 0 0 0 0 0 0 0 0 0 0 0 0 0 0
Wind_Speed_500mb
46 48 46 42 40 44 45 45 48 47 44 41 36 35 32 30 28 29 32 31 28 24 23 21 17 15 14 15 17 20 23 25 28 35 39 42 45 45 43 44 50 53 56
40 36 32 32 37 39 37 40 40 41 42 37 35 37 35 34 32 26 22 21 18 14 12 11 10 10 11 13 16 19 23 27 31 35 39 42 46 48 56 63 65 65 68
34 33 35 35 37 34 41 43 42 41 41 44 41 37 33 31 28 25 21 18 16 14 12 11 11 10 11 14 17 19 23 27 32 35 39 41 49 58 65 69 73 75 75
35 35 35 35 35 37 40 40 41 41 42 41 39 37 36 34 31 26 23 21 18 15 13 11 9 8 9 11 14 17 21 26 32 38 45 51 59 64 69 75 80 80 82
38 40 38 38 39 40 43 44 44 44 42 42 40 41 39 35 31 28 26 21 19 17 14 12 10 8 7 9 11 17 23 30 38 43 48 53 57 63 67 71 76 83 87
44 42 43 45 46 48 48 49 48 46 45 45 45 41 38 37 34 30 24 21 19 17 15 13 11 8 4 8 14 23 30 33 36 40 43 48 53 56 63 67 75 83 91
46 46 48 49 51 52 52 51 51 49 48 49 48 44 42 39 34 30 26 22 18 17 16 14 11 6 4 10 17 22 25 27 30 33 37 41 50 51 56 63 69 71 75
53 55 55 55 56 55 56 56 55 54 53 53 52 49 44 39 35 31 26 24 23 21 18 15 11 6 5 11 14 16 19 22 29 36 40 42 45 47 49 55 62 70 76
61 63 62 61 61 62 63 60 59 58 58 58 55 51 45 40 37 33 30 28 24 20 19 16 11 7 7 10 12 18 25 29 30 34 39 41 43 42 45 52 57 63 71
68 66 64 63 63 64 63 62 60 59 59 58 55 48 42 40 39 35 31 27 23 22 20 14 11 7 9 12 18 24 28 31 36 39 42 45 47 47 42 41 45 50 54
63 64 64 64 64 62 64 63 63 64 64 60 53 49 46 42 38 33 29 26 23 24 20 16 12 10 10 15 20 23 28 32 37 42 45 46 44 43 44 42 39 42 49
57 64 67 67 67 68 69 67 68 68 66 63 59 54 51 46 40 36 32 28 29 27 22 18 16 10 8 11 15 20 25 30 35 38 40 42 44 47 48 47 42 38 35
49 61 68 67 69 72 74 74 74 73 71 67 63 60 56 50 44 37 35 30 33 29 25 23 18 11 7 6 10 17 23 26 31 35 40 43 45 46 49 48 45 44 38
45 55 63 68 72 75 76 76 77 78 75 69 67 62 56 51 44 41 35 40 40 34 31 27 21 16 9 4 7 14 19 24 29 34 38 40 40 40 45 50 53 56 56
38 47 56 65 70 76 77 78 77 73 70 68 64 60 57 49 41 38 38 46 41 37 33 31 26 19 13 8 7 11 17 23 28 32 34 36 38 39 42 46 48 50 50
34 41 50 60 69 75 76 76 76 71 67 63 59 54 47 41 38 41 50 48 43 41 39 35 29 23 16 11 12 11 15 21 24 29 34 37 39 41 43 44 45 48 50
31 36 45 57 68 75 77 79 79 75 71 63 61 61 54 47 46 52 55 51 52 49 44 39 33 25 21 19 15 14 17 20 22 27 34 36 38 41 44 45 45 46 45
32 35 43 53 65 73 76 77 78 77 77 75 72 68 58 57 50 59 57 61 59 58 49 42 35 30 26 22 18 18 20 21 23 28 33 37 39 40 42 42 43 44 45
35 39 44 52 62 69 73 77 78 76 77 76 77 75 67 60 61 62 66 67 65 59 51 44 39 34 31 27 24 25 24 24 26 29 33 37 41 40 39 40 37 36 38
37 39 44 52 59 68 74 76 77 80 84 84 82 78 66 69 69 73 73 74 73 64 56 49 44 40 37 33 31 29 27 28 31 33 34 37 40 41 40 34 33 30 30
38 41 47 54 60 65 70 75 80 84 86 90 87 80 70 67 64 72 73 75 74 67 59 53 49 46 43 40 39 35 32 32 35 37 40 39 38 39 38 34 30 29 29
40 41 47 54 58 64 69 72 77 85 90 93 93 87 76 76 82 83 81 74 72 67 63 61 57 52 49 46 45 42 37 34 37 41 41 42 38 37 37 33 31 30 30
43 43 47 56 62 65 68 72 78 85 93 93 98 91 80 90 87 84 75 77 77 73 69 67 60 58 55 51 50 46 42 38 41 43 41 41 40 38 40 36 35 34 34
46 46 47 54 61 67 71 76 80 82 86 90 98 91 86 85 86 78 74 76 78 76 76 72 65 61 58 55 53 51 47 43 45 45 46 41 41 42 44 43 41 41 40
48 48 49 52 60 64 69 76 81 83 85 86 93 93 90 87 81 80 79 74 76 77 77 72 69 66 63 59 57 53 51 48 48 48 49 47 46 45 47 47 45 47 46
52 52 51 52 58 61 68 73 78 81 84 85 87 84 84 85 83 89 85 74 78 77 72 71 71 67 63 60 57 55 53 52 51 51 52 52 51 49 50 48 48 51 51
Wind_Direction_500mb
240 240 239 237 234 231 232 223 215 217 226 232 227 229 229 230 229 239 246 254 259 255 262 267 266 274 284 290 299 313 320 322 318 325 327 333 338 337 338 337 337 340 342
235 232 232 227 222 215 207 203 212 217 219 221 219 216 217 223 229 230 234 237 236 234 239 245 252 267 287 304 313 317 318 325 329 332 335 337 339 340 343 345 347 345 345
230 227 222 218 214 198 200 209 212 214 220 228 217 221 218 214 210 208 203 207 215 218 227 242 261 280 299 308 314 321 327 331 334 334 335 340 346 347 345 343 343 341 341
228 228 226 217 210 206 203 205 212 219 225 221 215 211 207 200 197 197 198 201 210 224 232 234 249 267 287 304 317 328 335 339 339 343 348 349 348 347 343 340 338 339 338
227 225 221 216 212 209 211 215 219 216 215 216 210 200 196 196 195 197 200 207 214 217 218 226 234 253 283 303 327 339 344 348 352 351 349 347 345 343 341 339 335 336 336
229 226 223 221 219 217 218 216 214 213 209 206 202 201 199 196 197 201 205 209 213 216 220 226 229 223 242 325 342 350 355 356 351 348 347 343 344 342 341 339 333 334 333
237 235 230 225 222 219 218 216 213 209 206 204 205 201 199 202 203 205 206 209 210 215 222 222 215 211 311 339 348 355 353 352 348 344 346 346 343 345 336 330 324 325 325
240 236 231 226 224 221 220 217 212 209 209 208 204 202 204 206 206 206 205 207 211 215 216 210 215 251 301 343 354 353 353 349 350 353 351 348 346 342 334 326 325 322 323
240 236 232 228 225 223 221 217 213 213 210 207 206 208 209 210 210 207 206 209 209 214 208 211 230 263 319 339 343 353 355 356 356 354 352 347 347 346 334 329 329 326 325
242 238 234 231 229 227 226 221 218 215 213 209 209 210 212 212 211 207 207 208 212 215 215 224 241 262 298 333 349 355 358 355 355 354 351 348 345 343 340 336 330 324 326
247 243 237 234 232 230 228 224 220 214 211 211 213 215 214 212 209 208 208 210 218 218 222 229 235 258 311 336 349 357 359 358 356 354 350 347 343 342 342 344 341 335 328
250 244 239 235 232 228 226 223 219 215 214 213 214 213 214 211 209 208 208 213 221 221 221 225 231 259 303 339 352 355 358 0 356 350 349 345 346 347 347 350 346 342 332
250 244 239 235 232 228 225 221 218 216 215 216 216 215 212 208 209 211 209 212 223 221 222 226 233 240 264 317 352 358 359 355 351 351 349 349 349 350 346 345 345 344 349
253 246 239 234 230 226 224 223 222 219 217 218 219 216 213 210 213 212 213 225 220 220 222 228 224 224 224 266 341 350 341 345 349 351 348 346 346 346 346 344 346 346 345
253 246 239 234 230 229 226 226 225 226 229 228 225 222 217 215 219 216 228 225 221 222 225 226 222 217 217 234 293 318 328 340 343 341 342 342 339 343 343 343 343 343 344
263 252 242 236 231 229 228 226 225 227 229 227 225 223 217 226 225 229 226 222 226 230 232 229 225 222 222 241 265 291 319 327 332 333 335 335 334 337 338 339 340 339 340
271 261 250 241 234 232 230 229 228 224 222 220 219 215 219 217 224 228 222 226 235 236 234 230 227 226 229 238 256 288 306 310 320 327 326 328 329 330 330 333 336 336 337
275 262 250 245 241 237 236 235 233 230 227 221 216 216 219 224 225 231 228 236 235 236 234 231 228 230 235 243 259 276 288 301 311 318 318 321 321 323 325 328 331 332 333
274 264 254 247 243 242 241 240 237 234 231 229 222 218 221 221 227 233 237 239 241 238 236 234 231 232 236 245 258 269 282 292 302 306 311 313 314 317 319 322 324 325 328
278 267 256 250 246 243 242 241 239 236 234 231 226 225 229 227 224 229 235 242 239 237 234 232 233 235 240 246 255 265 275 286 293 298 304 307 309 311 313 316 314 318 323
284 272 263 257 251 248 247 245 243 240 238 236 230 232 235 238 237 238 241 244 245 237 234 234 235 237 239 246 254 260 268 279 287 294 299 301 303 303 304 307 305 309 313
284 276 267 262 259 254 250 249 247 246 243 238 233 238 238 239 236 239 242 247 243 238 236 237 237 240 244 248 255 259 264 272 279 286 294 294 296 295 293 294 292 295 300
286 278 269 263 259 256 254 252 252 250 248 244 239 243 240 246 244 243 246 246 243 241 244 244 241 242 246 249 255 260 266 272 274 282 286 287 289 288 285 285 282 283 289
287 281 274 268 264 262 259 257 254 251 253 252 248 249 250 254 251 249 249 248 247 247 248 248 248 248 249 252 257 261 267 270 275 281 282 283 283 280 278 278 278 279 282
291 285 280 277 276 271 265 261 259 258 255 253 253 252 253 259 247 247 245 248 248 247 246 247 249 249 249 252 256 261 265 270 274 277 281 282 281 278 276 274 274 276 279
295 289 283 279 276 275 273 269 266 264 262 260 256 254 255 254 242 249 249 244 248 248 247 248 250 250 251 253 255 259 264 269 273 277 278 279 280 279 276 274 273 275 278
Wind_Speed_850mb
46 48 46 42 40 44 45 45 48 47 44 41 36 35 32 30 28 29 32 31 28 24 23 21 17 15 14 15 17 20 23 25 28 35 39 42 45 45 43 44 50 53 56
40 36 32 32 37 39 37 40 40 41 42 37 35 37 35 34 32 26 22 21 18 14 12 11 10 10 11 13 16 19 23 27 31 35 39 42 46 48 56 63 65 65 68
34 33 35 35 37 34 41 43 42 41 41 44 41 37 33 31 28 25 21 18 16 14 12 11 11 10 11 14 17 19 23 27 32 35 39 41 49 58 65 69 73 75 75
35 35 35 35 35 37 40 40 41 41 42 41 39 37 36 34 31 26 23 21 18 15 13 11 9 8 9 11 14 17 21 26 32 38 45 51 59 64 69 75 80 80 82
38 40 38 38 39 40 43 44 44 44 42 42 40 41 39 35 31 28 26 21 19 17 14 12 10 8 7 9 11 17 23 30 38 43 48 53 57 63 67 71 76 83 87
44 42 43 45 46 48 48 49 48 46 45 45 45 41 38 37 34 30 24 21 19 17 15 13 11 8 4 8 14 23 30 33 36 40 43 48 53 56 63 67 75 83 91
46 46 48 49 51 52 52 51 51 49 48 49 48 44 42 39 34 30 26 22 18 17 16 14 11 6 4 10 17 22 25 27 30 33 37 41 50 51 56 63 69 71 75
53 55 55 55 56 55 56 56 55 54 53 53 52 49 44 39 35 31 26 24 23 21 18 15 11 6 5 11 14 16 19 22 29 36 40 42 45 47 49 55 62 70 76
61 63 62 61 61 62 63 60 59 58 58 58 55 51 45 40 37 33 30 28 24 20 19 16 11 7 7 10 12 18 25 29 30 34 39 41 43 42 45 52 57 63 71
68 66 64 63 63 64 63 62 60 59 59 58 55 48 42 40 39 35 31 27 23 22 20 14 11 7 9 12 18 24 28 31 36 39 42 45 47 47 42 41 45 50 54
63 64 64 64 64 62 64 63 63 64 64 60 53 49 46 42 38 33 29 26 23 24 20 16 12 10 10 15 20 23 28 32 37 42 45 46 44 43 44 42 39 42 49
57 64 67 67 67 68 69 67 68 68 66 63 59 54 51 46 40 36 32 28 29 27 22 18 16 10 8 11 15 20 25 30 35 38 40 42 44 47 48 47 42 38 35
49 61 68 67 69 72 74 74 74 73 71 67 63 60 56 50 44 37 35 30 33 29 25 23 18 11 7 6 10 17 23 26 31 35 40 43 45 46 49 48 45 44 38
45 55 63 68 72 75 76 76 77 78 75 69 67 62 56 51 44 41 35 40 40 34 31 27 21 16 9 4 7 14 19 24 29 34 38 40 40 40 45 50 53 56 56
38 47 56 65 70 76 77 78 77 73 70 68 64 60 57 49 41 38 38 46 41 37 33 31 26 19 13 8 7 11 17 23 28 32 34 36 38 39 42 46 48 50 50
34 41 50 60 69 75 76 76 76 71 67 63 59 54 47 41 38 41 50 48 43 41 39 35 29 23 16 11 12 11 15 21 24 29 34 37 39 41 43 44 45 48 50
31 36 45 57 68 75 77 79 79 75 71 63 61 61 54 47 46 52 55 51 52 49 44 39 33 25 21 19 15 14 17 20 22 27 34 36 38 41 44 45 45 46 45
32 35 43 53 65 73 76 77 78 77 77 75 72 68 58 57 50 59 57 61 59 58 49 42 35 30 26 22 18 18 20 21 23 28 33 37 39 40 42 42 43 44 45
35 39 44 52 62 69 73 77 78 76 77 76 77 75 67 60 61 62 66 67 65 59 51 44 39 34 31 27 24 25 24 24 26 29 33 37 41 40 39 40 37 36 38
37 39 44 52 59 68 74 76 77 80 84 84 82 78 66 69 69 73 73 74 73 64 56 49 44 40 37 33 31 29 27 28 31 33 34 37 40 41 40 34 33 30 30
38 41 47 54 60 65 70 75 80 84 86 90 87 80 70 67 64 72 73 75 74 67 59 53 49 46 43 40 39 35 32 32 35 37 40 39 38 39 38 34 30 29 29
40 41 47 54 58 64 69 72 77 85 90 93 93 87 76 76 82 83 81 74 72 67 63 61 57 52 49 46 45 42 37 34 37 41 41 42 38 37 37 33 31 30 30
43 43 47 56 62 65 68 72 78 85 93 93 98 91 80 90 87 84 75 77 77 73 69 67 60 58 55 51 50 46 42 38 41 43 41 41 40 38 40 36 35 34 34
46 46 47 54 61 67 71 76 80 82 86 90 98 91 86 85 86 78 74 76 78 76 76 72 65 61 58 55 53 51 47 43 45 45 46 41 41 42 44 43 41 41 40
48 48 49 52 60 64 69 76 81 83 85 86 93 93 90 87 81 80 79 74 76 77 77 72 69 66 63 59 57 53 51 48 48 48 49 47 46 45 47 47 45 47 46
52 52 51 52 58 61 68 73 78 81 84 85 87 84 84 85 83 89 85 74 78 77 72 71 71 67 63 60 57 55 53 52 51 51 52 52 51 49 50 48 48 51 51
Wind_Direction_850mb
240 240 239 237 234 231 232 223 215 217 226 232 227 229 229 230 229 239 246 254 259 255 262 267 266 274 284 290 299 313 320 322 318 325 327 333 338 337 338 337 337 340 342
235 232 232 227 222 215 207 203 212 217 219 221 219 216 217 223 229 230 234 237 236 234 239 245 252 267 287 304 313 317 318 325 329 332 335 337 339 340 343 345 347 345 345
230 227 222 218 214 198 200 209 212 214 220 228 217 221 218 214 210 208 203 207 215 218 227 242 261 280 299 308 314 321 327 331 334 334 335 340 346 347 345 343 343 341 341
228 228 226 217 210 206 203 205 212 219 225 221 215 211 207 200 197 197 198 201 210 224 232 234 249 267 287 304 317 328 335 339 339 343 348 349 348 347 343 340 338 339 338
227 225 221 216 212 209 211 215 219 216 215 216 210 200 196 196 195 197 200 207 214 217 218 226 234 253 283 303 327 339 344 348 352 351 349 347 345 343 341 339 335 336 336
229 226 223 221 219 217 218 216 214 213 209 206 202 201 199 196 197 201 205 209 213 216 220 226 229 223 242 325 342 350 355 356 351 348 347 343 344 342 341 339 333 334 333
237 235 230 225 222 219 218 216 213 209 206 204 205 201 199 202 203 205 206 209 210 215 222 222 215 211 311 339 348 355 353 352 348 344 346 346 343 345 336 330 324 325 325
240 236 231 226 224 221 220 217 212 209 209 208 204 202 204 206 206 206 205 207 211 215 216 210 215 251 301 343 354 353 353 349 350 353 351 348 346 342 334 326 325 322 323
240 236 232 228 225 223 221 217 213 213 210 207 206 208 209 210 210 207 206 209 209 214 208 211 230 263 319 339 343 353 355 356 356 354 352 347 347 346 334 329 329 326 325
242 238 234 231 229 227 226 221 218 215 213 209 209 210 212 212 211 207 207 208 212 215 215 224 241 262 298 333 349 355 358 355 355 354 351 348 345 343 340 336 330 324 326
247 243 237 234 232 230 228 224 220 214 211 211 213 215 214 212 209 208 208 210 218 218 222 229 235 258 311 336 349 357 359 358 356 354 350 347 343 342 342 344 341 335 328
250 244 239 235 232 228 226 223 219 215 214 213 214 213 214 211 209 208 208 213 221 221 221 225 231 259 303 339 352 355 358 0 356 350 349 345 346 347 347 350 346 342 332
250 244 239 235 232 228 225 221 218 216 215 216 216 215 212 208 209 211 209 212 223 221 222 226 233 240 264 317 352 358 359 355 351 351 349 349 349 350 346 345 345 344 349
253 246 239 234 230 226 224 223 222 219 217 218 219 216 213 210 213 212 213 225 220 220 222 228 224 224 224 266 341 350 341 345 349 351 348 346 346 346 346 344 346 346 345
253 246 239 234 230 229 226 226 225 226 229 228 225 222 217 215 219 216 228 225 221 222 225 226 222 217 217 234 293 318 328 340 343 341 342 342 339 343 343 343 343 343 344
263 252 242 236 231 229 228 226 225 227 229 227 225 223 217 226 225 229 226 222 226 230 232 229 225 222 222 241 265 291 319 327 332 333 335 335 334 337 338 339 340 339 340
271 261 250 241 234 232 230 229 228 224 222 220 219 215 219 217 224 228 222 226 235 236 234 230 227 226 229 238 256 288 306 310 320 327 326 328 329 330 330 333 336 336 337
275 262 250 245 241 237 236 235 233 230 227 221 216 216 219 224 225 231 228 236 235 236 234 231 228 230 235 243 259 276 288 301 311 318 318 321 321 323 325 328 331 332 333
274 264 254 247 243 242 241 240 237 234 231 229 222 218 221 221 227 233 237 239 241 238 236 234 231 232 236 245 258 269 282 292 302 306 311 313 314 317 319 322 324 325 328
278 267 256 250 246 243 242 241 239 236 234 231 226 225 229 227 224 229 235 242 239 237 234 232 233 235 240 246 255 265 275 286 293 298 304 307 309 311 313 316 314 318 323
284 272 263 257 251 248 247 245 243 240 238 236 230 232 235 238 237 238 241 244 245 237 234 234 235 237 239 246 254 260 268 279 287 294 299 301 303 303 304 307 305 309 313
284 276 267 262 259 254 250 249 247 246 243 238 233 238 238 239 236 239 242 247 243 238 236 237 237 240 244 248 255 259 264 272 279 286 294 294 296 295 293 294 292 295 300
286 278 269 263 259 256 254 252 252 250 248 244 239 243 240 246 244 243 246 246 243 241 244 244 241 242 246 249 255 260 266 272 274 282 286 287 289 288 285 285 282 283 289
287 281 274 268 264 262 259 257 254 251 253 252 248 249 250 254 251 249 249 248 247 247 248 248 248 248 249 252 257 261 267 270 275 281 282 283 283 280 278 278 278 279 282
291 285 280 277 276 271 265 261 259 258 255 253 253 252 253 259 247 247 245 248 248 247 246 247 249 249 249 252 256 261 265 270 274 277 281 282 281 278 276 274 274 276 279
295 289 283 279 276 275 273 269 266 264 262 260 256 254 255 254 242 249 249 244 248 248 247 248 250 250 251 253 255 259 264 269 273 277 278 279 280 279 276 274 273 275 278